�������l�o���
Date,Time,MP-1(��Sv/h),MP-2(��Sv/h),MP-3(��Sv/h),MP-4(��Sv/h),MP-5(��Sv/h),MP-6(��Sv/h),MP-7(��Sv/h),MP-8(��Sv/h),����,����(m/s),���J
2020/01/30,00:00,0.685,0.952,0.634,1.206,0.819,0.398,0.692,0.661,�k�k��,3.8,��
2020/01/30,00:10,0.684,0.948,0.634,1.207,0.819,0.397,0.693,0.659,�k�k��,3.6,��
2020/01/30,00:20,0.684,0.950,0.636,1.208,0.821,0.397,0.694,0.660,�k��,4.3,��
2020/01/30,00:30,0.683,0.951,0.638,1.207,0.820,0.397,0.693,0.659,���k��,5.0,��
2020/01/30,00:40,0.686,0.952,0.634,1.210,0.821,0.398,0.693,0.658,�k��,5.3,��
2020/01/30,00:50,0.685,0.953,0.637,1.208,0.821,0.396,0.692,0.658,���k��,4.6,��
2020/01/30,01:00,0.683,0.951,0.634,1.210,0.822,0.396,0.693,0.659,���k��,3.8,��
2020/01/30,01:10,0.686,0.950,0.635,1.208,0.822,0.398,0.693,0.661,���k��,7.8,��
2020/01/30,01:20,0.684,0.953,0.636,1.207,0.820,0.397,0.694,0.660,���k��,8.5,��
2020/01/30,01:30,0.686,0.954,0.635,1.210,0.822,0.398,0.694,0.659,���k��,8.2,��
2020/01/30,01:40,0.687,0.955,0.636,1.210,0.824,0.397,0.694,0.661,���k��,6.4,��
2020/01/30,01:50,0.686,0.955,0.638,1.208,0.822,0.398,0.696,0.660,���k��,4.4,��
2020/01/30,02:00,0.686,0.955,0.638,1.211,0.825,0.398,0.694,0.660,�k��,1.1,��
2020/01/30,02:10,0.687,0.955,0.637,1.208,0.823,0.398,0.694,0.660,��,4.4,��
2020/01/30,02:20,0.685,0.954,0.637,1.211,0.822,0.396,0.692,0.660,���k��,5.5,��
2020/01/30,02:30,0.687,0.957,0.639,1.211,0.824,0.397,0.693,0.659,��,6.3,��
2020/01/30,02:40,0.687,0.957,0.637,1.212,0.825,0.399,0.695,0.659,��,6.0,��
2020/01/30,02:50,0.687,0.956,0.637,1.210,0.822,0.398,0.694,0.660,��,5.6,��
2020/01/30,03:00,0.688,0.956,0.637,1.211,0.824,0.398,0.695,0.661,���k��,5.6,��
2020/01/30,03:10,0.688,0.956,0.637,1.211,0.824,0.398,0.692,0.661,���k��,6.0,��
2020/01/30,03:20,0.688,0.957,0.637,1.209,0.825,0.397,0.693,0.659,���k��,5.6,��
2020/01/30,03:30,0.688,0.955,0.637,1.211,0.824,0.398,0.692,0.661,���k��,5.0,��
2020/01/30,03:40,0.690,0.959,0.638,1.212,0.823,0.398,0.694,0.662,���k��,5.2,��
2020/01/30,03:50,0.689,0.956,0.637,1.213,0.825,0.398,0.695,0.662,��,4.9,��
2020/01/30,04:00,0.688,0.959,0.638,1.212,0.826,0.398,0.693,0.660,���k��,5.8,��
2020/01/30,04:10,0.687,0.958,0.638,1.212,0.826,0.398,0.694,0.660,��,6.0,��
2020/01/30,04:20,0.689,0.958,0.640,1.213,0.825,0.400,0.694,0.661,���k��,7.2,��
2020/01/30,04:30,0.688,0.959,0.641,1.213,0.825,0.399,0.694,0.660,���k��,7.7,��
2020/01/30,04:40,0.688,0.959,0.637,1.211,0.825,0.398,0.693,0.661,���k��,6.9,��
2020/01/30,04:50,0.688,0.960,0.638,1.211,0.827,0.399,0.694,0.661,���k��,8.0,��
2020/01/30,05:00,0.689,0.963,0.640,1.211,0.825,0.397,0.698,0.661,���k��,8.0,��
2020/01/30,05:10,0.688,0.959,0.639,1.213,0.827,0.398,0.694,0.660,���k��,7.1,��
2020/01/30,05:20,0.690,0.962,0.640,1.213,0.825,0.397,0.694,0.660,���k��,4.9,��
2020/01/30,05:30,0.689,0.962,0.639,1.214,0.827,0.397,0.693,0.661,���k��,6.0,��
2020/01/30,05:40,0.690,0.963,0.638,1.214,0.827,0.398,0.695,0.660,���k��,6.0,��
2020/01/30,05:50,0.688,0.960,0.638,1.212,0.827,0.397,0.695,0.660,��,4.6,��
2020/01/30,06:00,0.689,0.962,0.641,1.211,0.827,0.397,0.695,0.660,���k��,4.9,��
2020/01/30,06:10,0.688,0.961,0.640,1.212,0.825,0.397,0.693,0.661,���k��,5.5,��
2020/01/30,06:20,0.690,0.962,0.641,1.214,0.826,0.398,0.694,0.661,���k��,7.2,��
2020/01/30,06:30,0.689,0.963,0.640,1.214,0.828,0.399,0.694,0.661,��,8.5,��
2020/01/30,06:40,0.688,0.963,0.640,1.214,0.826,0.397,0.697,0.661,���k��,8.6,��
2020/01/30,06:50,0.688,0.961,0.640,1.214,0.827,0.400,0.697,0.660,���k��,7.7,��
2020/01/30,07:00,0.687,0.964,0.639,1.215,0.828,0.400,0.694,0.660,���k��,7.8,��
2020/01/30,07:10,0.690,0.961,0.639,1.212,0.828,0.398,0.694,0.659,���k��,7.1,��
2020/01/30,07:20,0.690,0.964,0.639,1.216,0.828,0.397,0.695,0.662,���k��,8.6,��
2020/01/30,07:30,0.688,0.963,0.641,1.214,0.827,0.399,0.695,0.662,���k��,8.2,��
2020/01/30,07:40,0.687,0.966,0.640,1.215,0.829,0.400,0.695,0.662,�k��,7.4,��
2020/01/30,07:50,0.688,0.964,0.639,1.213,0.826,0.399,0.695,0.662,���k��,6.4,��
2020/01/30,08:00,0.692,0.965,0.639,1.216,0.828,0.397,0.696,0.661,���k��,4.0,��
2020/01/30,08:10,0.690,0.966,0.639,1.214,0.831,0.398,0.696,0.662,�k��,3.8,��
2020/01/30,08:20,0.691,0.967,0.640,1.214,0.829,0.398,0.698,0.662,�k��,2.3,��
2020/01/30,08:30,0.692,0.965,0.639,1.217,0.832,0.398,0.696,0.661,��,1.1,��
2020/01/30,08:40,0.690,0.966,0.639,1.213,0.830,0.398,0.697,0.662,�k��,1.7,��
2020/01/30,08:50,0.691,0.963,0.640,1.211,0.834,0.398,0.696,0.661,���k��,1.3,��
2020/01/30,09:00,0.691,0.965,0.639,1.208,0.829,0.400,0.697,0.661,��,2.5,��
2020/01/30,09:10,0.692,0.963,0.640,1.209,0.828,0.399,0.697,0.660,�k��,2.1,��
2020/01/30,09:20,0.691,0.965,0.641,1.208,0.831,0.398,0.697,0.659,�k�k��,1.2,��
2020/01/30,09:30,0.692,0.962,0.642,1.208,0.832,0.399,0.695,0.660,���쓌,1.8,��
2020/01/30,09:40,0.690,0.965,0.639,1.204,0.830,0.399,0.695,0.660,���쓌,2.4,��
2020/01/30,09:50,0.690,0.965,0.639,1.206,0.833,0.398,0.695,0.661,��쓌,1.8,��
2020/01/30,10:00,0.692,0.963,0.636,1.205,0.832,0.400,0.695,0.661,�쓌,1.6,��
2020/01/30,10:10,0.692,0.963,0.640,1.208,0.832,0.400,0.696,0.662,��쐼,1.4,��
2020/01/30,10:20,0.691,0.962,0.641,1.208,0.832,0.399,0.697,0.661,��쐼,2.5,��
2020/01/30,10:30,0.690,0.963,0.643,1.206,0.834,0.398,0.693,0.662,��,2.5,��
2020/01/30,10:40,0.691,0.965,0.644,1.209,0.834,0.399,0.696,0.660,�쐼,2.0,��
2020/01/30,10:50,0.693,0.965,0.640,1.209,0.834,0.401,0.697,0.663,�쐼,1.4,��
2020/01/30,11:00,0.691,0.965,0.643,1.210,0.835,0.399,0.695,0.662,��쐼,2.9,��
2020/01/30,11:10,0.694,0.966,0.644,1.212,0.833,0.399,0.698,0.663,�쐼,2.0,��
2020/01/30,11:20,0.694,0.967,0.643,1.210,0.833,0.398,0.696,0.661,��쐼,3.3,��
2020/01/30,11:30,0.693,0.965,0.644,1.211,0.834,0.398,0.697,0.662,��쓌,4.2,��
2020/01/30,11:40,0.693,0.968,0.644,1.213,0.834,0.398,0.696,0.664,��쓌,5.8,��
2020/01/30,11:50,0.693,0.968,0.644,1.211,0.837,0.398,0.696,0.663,��쓌,5.2,��
2020/01/30,12:00,0.694,0.970,0.644,1.212,0.836,0.398,0.696,0.664,��쓌,5.0,��
2020/01/30,12:10,0.694,0.970,0.644,1.213,0.835,0.397,0.697,0.662,��쓌,4.6,��
2020/01/30,12:20,0.693,0.969,0.645,1.211,0.834,0.398,0.696,0.662,��쓌,3.4,��
2020/01/30,12:30,0.693,0.971,0.642,1.215,0.835,0.399,0.695,0.664,��쓌,4.3,��
2020/01/30,12:40,0.694,0.970,0.644,1.216,0.835,0.401,0.696,0.663,��쓌,5.8,��
2020/01/30,12:50,0.694,0.971,0.648,1.213,0.835,0.402,0.696,0.665,��,5.5,��
2020/01/30,13:00,0.697,0.969,0.647,1.212,0.836,0.400,0.697,0.663,��,4.3,��
2020/01/30,13:10,0.697,0.969,0.647,1.213,0.837,0.402,0.698,0.661,��,2.9,��
2020/01/30,13:20,0.697,0.973,0.647,1.214,0.838,0.401,0.697,0.664,��쐼,3.5,��
2020/01/30,13:30,0.696,0.972,0.648,1.212,0.840,0.402,0.698,0.662,�쐼,3.4,��
2020/01/30,13:40,0.697,0.974,0.648,1.214,0.836,0.403,0.695,0.664,�쐼,4.7,��
2020/01/30,13:50,0.697,0.972,0.649,1.211,0.839,0.402,0.699,0.663,�쐼,8.8,��
2020/01/30,14:00,0.696,0.972,0.648,1.215,0.838,0.403,0.698,0.665,�쐼,8.3,��
2020/01/30,14:10,0.696,0.972,0.649,1.213,0.839,0.402,0.698,0.664,��,6.9,��
2020/01/30,14:20,0.695,0.969,0.646,1.215,0.838,0.401,0.699,0.664,���쐼,4.5,��
2020/01/30,14:30,0.695,0.970,0.647,1.216,0.839,0.403,0.699,0.660,���쐼,6.4,��
2020/01/30,14:40,0.694,0.969,0.645,1.212,0.840,0.402,0.700,0.660,��,6.4,��
2020/01/30,14:50,0.694,0.972,0.646,1.214,0.839,0.402,0.697,0.661,��,5.5,��
2020/01/30,15:00,0.694,0.972,0.648,1.215,0.841,0.400,0.696,0.661,��,8.5,��
2020/01/30,15:10,0.695,0.973,0.646,1.217,0.841,0.400,0.697,0.661,���쐼,6.7,��
2020/01/30,15:20,0.695,0.971,0.646,1.217,0.840,0.401,0.699,0.660,��,4.9,��
2020/01/30,15:30,0.695,0.975,0.645,1.216,0.839,0.402,0.698,0.661,��,6.0,��
2020/01/30,15:40,0.693,0.977,0.647,1.212,0.841,0.401,0.697,0.662,��,5.5,��
2020/01/30,15:50,0.696,0.977,0.645,1.211,0.841,0.401,0.699,0.660,���쐼,5.5,��
2020/01/30,16:00,0.695,0.978,0.646,1.212,0.838,0.401,0.698,0.661,��,4.1,��
2020/01/30,16:10,0.695,0.979,0.646,1.213,0.842,0.403,0.697,0.661,���쐼,6.0,��
2020/01/30,16:20,0.695,0.978,0.644,1.214,0.842,0.403,0.698,0.661,���쐼,4.9,��
2020/01/30,16:30,0.693,0.974,0.645,1.215,0.840,0.403,0.698,0.661,���쐼,7.5,��
2020/01/30,16:40,0.694,0.979,0.647,1.227,0.840,0.403,0.697,0.663,��,6.0,��
2020/01/30,16:50,0.694,0.978,0.648,1.225,0.840,0.402,0.696,0.662,��,7.5,��
2020/01/30,17:00,0.694,0.974,0.646,1.225,0.841,0.403,0.698,0.664,��,8.0,��
2020/01/30,17:10,0.694,0.980,0.649,1.226,0.842,0.403,0.697,0.664,��,8.0,��
2020/01/30,17:20,0.695,0.980,0.650,1.228,0.841,0.402,0.695,0.664,��,8.2,��
2020/01/30,17:30,0.695,0.978,0.649,1.228,0.841,0.403,0.698,0.664,��,5.5,��
2020/01/30,17:40,0.695,0.979,0.649,1.226,0.843,0.402,0.697,0.665,��,6.3,��
2020/01/30,17:50,0.696,0.979,0.650,1.227,0.845,0.401,0.696,0.666,���k��,8.0,��
2020/01/30,18:00,0.697,0.978,0.650,1.230,0.843,0.401,0.697,0.665,��,5.3,��
2020/01/30,18:10,0.695,0.981,0.649,1.225,0.843,0.402,0.699,0.665,���k��,8.9,��
2020/01/30,18:20,0.697,0.979,0.648,1.227,0.844,0.402,0.698,0.665,���k��,8.2,��
2020/01/30,18:30,0.696,0.980,0.648,1.227,0.845,0.402,0.698,0.664,���k��,9.1,��
2020/01/30,18:40,0.697,0.981,0.649,1.228,0.845,0.402,0.695,0.663,��,8.5,��
2020/01/30,18:50,0.696,0.982,0.650,1.230,0.846,0.402,0.697,0.663,��,9.3,��
2020/01/30,19:00,0.696,0.981,0.650,1.227,0.844,0.402,0.698,0.665,��,11.3,��
2020/01/30,19:10,0.695,0.981,0.651,1.227,0.843,0.402,0.699,0.666,��,11.3,��
2020/01/30,19:20,0.696,0.981,0.649,1.227,0.844,0.402,0.696,0.664,��,8.3,��
2020/01/30,19:30,0.695,0.978,0.650,1.226,0.844,0.402,0.699,0.663,��,8.9,��
2020/01/30,19:40,0.696,0.982,0.648,1.226,0.845,0.402,0.700,0.663,��,7.4,��
2020/01/30,19:50,0.693,0.980,0.648,1.226,0.845,0.401,0.697,0.664,��,7.1,��
2020/01/30,20:00,0.694,0.981,0.649,1.226,0.846,0.401,0.699,0.663,��,6.3,��
2020/01/30,20:10,0.695,0.982,0.648,1.227,0.844,0.402,0.700,0.664,��,8.6,��
2020/01/30,20:20,0.694,0.984,0.649,1.228,0.846,0.403,0.700,0.664,��,8.6,��
2020/01/30,20:30,0.694,0.982,0.651,1.227,0.844,0.400,0.700,0.664,��,6.7,��
2020/01/30,20:40,0.695,0.981,0.650,1.227,0.845,0.399,0.698,0.665,���k��,6.6,��
2020/01/30,20:50,0.695,0.981,0.651,1.228,0.846,0.402,0.698,0.664,��,6.9,��
2020/01/30,21:00,0.695,0.980,0.649,1.229,0.845,0.401,0.698,0.664,��,5.2,��
2020/01/30,21:10,0.695,0.981,0.650,1.228,0.846,0.402,0.701,0.665,��,6.1,��
2020/01/30,21:20,0.696,0.981,0.649,1.228,0.845,0.401,0.700,0.665,���k��,5.6,��
2020/01/30,21:30,0.693,0.981,0.648,1.228,0.846,0.401,0.697,0.665,���k��,4.9,��
2020/01/30,21:40,0.696,0.982,0.650,1.227,0.845,0.402,0.698,0.665,���k��,4.2,��
2020/01/30,21:50,0.694,0.981,0.651,1.227,0.844,0.402,0.699,0.665,���k��,2.3,��
2020/01/30,22:00,0.695,0.982,0.650,1.229,0.847,0.402,0.700,0.666,�k��,3.4,��
2020/01/30,22:10,0.695,0.981,0.650,1.227,0.847,0.401,0.699,0.663,�k��,3.9,��
2020/01/30,22:20,0.695,0.980,0.649,1.227,0.847,0.401,0.700,0.663,���k��,1.6,��
2020/01/30,22:30,0.695,0.981,0.650,1.228,0.845,0.402,0.700,0.664,�k��,3.0,��
2020/01/30,22:40,0.696,0.981,0.651,1.227,0.847,0.403,0.700,0.664,���쐼,1.8,��
2020/01/30,22:50,0.693,0.982,0.650,1.226,0.845,0.399,0.698,0.664,��,4.2,��
2020/01/30,23:00,0.696,0.981,0.651,1.229,0.847,0.400,0.699,0.664,��,6.4,��
2020/01/30,23:10,0.695,0.980,0.650,1.229,0.846,0.401,0.700,0.664,��,6.6,��
2020/01/30,23:20,0.695,0.982,0.649,1.228,0.845,0.400,0.700,0.664,��,6.6,��
2020/01/30,23:30,0.693,0.981,0.650,1.229,0.846,0.401,0.699,0.663,��,6.1,��
2020/01/30,23:40,0.695,0.983,0.649,1.229,0.845,0.399,0.700,0.666,��,5.3,��
2020/01/30,23:50,0.695,0.983,0.646,1.229,0.848,0.401,0.700,0.665,��,5.8,��
